Flag for Poland Weather past 2 weeks in Sosnowiec, Poland

Now
54 °F

Light rain. Clear.


Feels Like: 53 °F
Forecast: 46 / 70 °F
Wind: 3 mph from North

Location: Katowice Airport

Current Time: Aug 21, 2014 at 10:54:20 AM

Latest Report: Aug 21, 2014 at 10:30 AM


Visibility: 5 mi

Pressure: 30.04 "Hg

Humidity: 88%

Dew point: 50 °F

Location of SosnowiecLocation

Historic Weather in Sosnowiec — Graph

°F

Sosnowiec temperature yesterday

Maximum temperature yesterday: 68 °F (at 2:30 PM)
Minimum temperature yesterday: 54 °F (at 5:30 AM)
Average temperature yesterday: 60 °F

Past Weeks' High & Low Weather Summary

 TemperatureHumidityPressure
High84 °F (Aug 9, 3:00 PM)100% (Aug 8, 1:30 AM)30.04 "Hg (Aug 8, 1:30 AM)
Low52 °F (Aug 17, 3:00 AM)37% (Aug 9, 3:00 PM)29.65 "Hg (Aug 13, 9:00 PM)
Average64 °F77%29.93 "Hg
* Reported Aug 6 9:00 AM — Aug 21 9:30 AM, Sosnowiec, Weather by CustomWeather, © 2014

Note: Actual official high and low records may vary slightly from our data, if they occured in-between our weather recording intervals... More about our weather records

Advertising

Sosnowiec weather history for previous 24 hours

 ConditionsComfort  
Time TempWeatherWind HumidityBarometerVisibility
9:30 AM
Aug 21
54 °FLight rain. Scattered clouds.3 mph88%30.04 "HgN/A
9:00 AM54 °FLight rain. Scattered clouds.6 mph88%30.04 "HgN/A
8:30 AM54 °FLight rain. Clear.1 mph88%30.01 "HgN/A
8:00 AM54 °FLight rain. Clear.3 mph88%30.01 "HgN/A
7:30 AM54 °FLight rain. Clear.3 mph82%30.01 "HgN/A
7:00 AM54 °FLight rain. Clear.6 mph82%29.98 "HgN/A
6:30 AM54 °FClear.1 mph82%29.98 "Hg10 mi
6:00 AM54 °FClear.1 mph82%29.98 "Hg10 mi
5:30 AM55 °FLight rain. Clear.3 mph72%29.98 "HgN/A
5:00 AM55 °FPassing clouds.3 mph72%29.98 "HgN/A
4:30 AM55 °FClear.6 mph72%29.98 "Hg10 mi
4:00 AM55 °FClear.3 mph72%30.01 "Hg10 mi
3:30 AM55 °FClear.3 mph77%30.01 "Hg10 mi
3:00 AM55 °FClear.2 mph82%30.01 "Hg10 mi
2:30 AM55 °FClear.1 mph82%30.01 "Hg10 mi
2:00 AM55 °FClear.2 mph82%30.01 "Hg10 mi
1:30 AM55 °FClear.2 mph82%30.01 "Hg10 mi
1:00 AM57 °FClear.1 mph77%30.01 "Hg10 mi
12:30 AM55 °FPassing clouds.5 mph82%30.01 "HgN/A
12:00 AM59 °FPassing clouds.3 mph68%30.01 "HgN/A
11:30 PM
Aug 20
59 °FPassing clouds.1 mph68%30.01 "HgN/A
11:00 PM59 °FPassing clouds.No wind68%30.01 "HgN/A
10:30 PM61 °FLight rain. Passing clouds.No wind59%30.01 "HgN/A
10:00 PM61 °FPassing clouds.2 mph55%30.01 "HgN/A
9:30 PM61 °FClear.2 mph55%30.01 "Hg10 mi
9:00 PM61 °FClear.2 mph59%30.01 "Hg10 mi
8:30 PM61 °FSunny.2 mph63%30.01 "Hg10 mi
8:00 PM61 °FSunny.2 mph68%29.98 "Hg10 mi
7:30 PM63 °FScattered clouds.3 mph68%29.98 "HgN/A
7:00 PM64 °FPassing clouds.1 mph60%29.98 "HgN/A
6:30 PM64 °FPassing clouds.6 mph56%29.98 "HgN/A
6:00 PM66 °FSunny.7 mph52%29.98 "Hg10 mi
5:30 PM66 °FSunny.7 mph52%29.98 "Hg10 mi
5:00 PM68 °FSunny.8 mph49%29.98 "Hg10 mi
4:30 PM66 °FPassing clouds.8 mph52%29.98 "HgN/A
4:00 PM66 °FPassing clouds.9 mph52%29.98 "HgN/A
3:30 PM66 °FPassing clouds.9 mph49%30.01 "HgN/A
3:00 PM66 °FPassing clouds.7 mph52%30.01 "HgN/A
2:30 PM68 °FPassing clouds.7 mph53%30.01 "HgN/A
2:00 PM66 °FPassing clouds.9 mph60%30.01 "HgN/A
1:30 PM66 °FPassing clouds.12 mph56%30.01 "HgN/A
1:00 PM66 °FPassing clouds.9 mph52%30.01 "HgN/A
12:30 PM66 °FPassing clouds.12 mph56%30.01 "HgN/A
12:00 PM63 °FScattered clouds.8 mph64%30.01 "HgN/A
11:30 AM63 °FPassing clouds.8 mph68%30.01 "HgN/A
11:00 AM61 °FPassing clouds.8 mph77%30.01 "HgN/A
10:30 AM61 °FPassing clouds.6 mph72%30.01 "HgN/A
10:00 AM59 °FPassing clouds.8 mph77%30.01 "HgN/A
Weather by CustomWeather, © 2014

See weather overviewHow to use our weather pages